Regional Weather Roundup
Issued by NWS Upton, NY

Current Version | Previous Version | Graphics & Text | Print | Product List | Glossary Off
Versions: 1 2 3 4 5 6 7 8 9 10 11 12 13 14 15 16 17 18 19 20 21 22 23 24 25 26 27 28 29 30 31 32 33 34 35 36 37 38 39 40 41 42 43 44 45 46 47 48 49 50
000 ASUS41 KOKX 280008 RWROKX REGIONAL WEATHER ROUNDUP NATIONAL WEATHER SERVICE NEW YORK NY 800 PM EDT MON JUL 27 2015 NOTE: "FAIR" INDICATES FEW OR NO CLOUDS BELOW 12,000 FEET WITH NO SIGNIFICANT WEATHER AND/OR OBSTRUCTIONS TO VISIBILITY. NYZ071-072-176-178-NJZ106-104-280100- NEW YORK CITY METRO AREA CITY SKY/WX TMP DP RH WIND PRES REMARKS CENTRAL PARK PTCLDY 79 66 64 VRB5 30.02R LAGUARDIA APRT MOCLDY 79 66 64 S12 29.99R KENNEDY INTL MOCLDY 78 69 73 S12 30.00S NEWARK/LIBERTY MOCLDY 81 69 67 S7 29.98R BRNX BOT. GARD N/A 77 66 69 E1 30.00S TETERBORO PTCLDY 80 67 64 S12G18 29.97R $$ NYZ177-179-078>081-280100- LONG ISLAND NEW YORK CITY SKY/WX TMP DP RH WIND PRES REMARKS FARMINGDALE CLEAR 77 70 79 S8 30.00S ISLIP PTCLDY 77 69 76 S8 29.98S SHIRLEY CLEAR 77 71 82 SW7 30.01R WESTHAMPTON CLEAR 77 72 84 SW7 30.02R MONTAUK POINT N/A 76 70 82 VRB3 30.03R $$ NYZ052-065-067-280100- HUDSON VALLEY CITY SKY/WX TMP DP RH WIND PRES REMARKS WHITE PLAINS PTCLDY 76 67 73 VRB5 30.01R NEWBURGH PTCLDY 77 72 83 SE7 30.01R MONTGOMERY PTCLDY 77 71 82 S6 29.99R POUGHKEEPSIE PTCLDY 80 68 66 S5 29.97R ALBANY MOCLDY 83 65 54 S6 29.96R $$ NJZ001-105-106-008-010-013-015-019>022-104-280100- NEW JERSEY CITY SKY/WX TMP DP RH WIND PRES REMARKS NEWARK/LIBERTY MOCLDY 81 69 67 S7 29.98R TETERBORO PTCLDY 80 67 64 S12G18 29.97R CALDWELL PTCLDY 81 68 64 S5 29.99R MORRISTOWN MOCLDY 81 72 74 S6 29.99R SOMERVILLE MOCLDY 78 69 73 CALM 29.97R SUSSEX CLEAR 80 68 66 CALM 29.99R ANDOVER N/A 77 71 82 CALM 30.00R TRENTON CLOUDY 82 68 62 S7 29.98R MILLVILLE CLOUDY 78 70 76 VRB3 29.99S ATLANTIC CITY CLOUDY 77 69 76 S7 30.00S WRIGHTSTOWN PTCLDY 76 71 84 S6 29.97R TOMS RIVER PTCLDY 77 70 78 S5 30.01R BELMAR PTCLDY 75 66 73 S5 30.00R $$ PAZ047>061-062-071-280100- EASTERN PENNSYLVANIA CITY SKY/WX TMP DP RH WIND PRES REMARKS PHILADELPHIA PTCLDY 82 69 64 S9 29.98R ALLENTOWN MOCLDY 83 68 60 CALM 29.98R SCRANTON CLEAR 82 62 50 W6 30.00S $$ CTZ002-004>006-009-010-012-RIZ004-006-007-MAZ004-011-015-280100- SOUTHERN NEW ENGLAND IN CT CITY SKY/WX TMP DP RH WIND PRES REMARKS BRADLEY INTL MOCLDY 80 66 62 SW7 29.98R HARTFORD MOCLDY 80 67 64 S9 29.99R DANBURY PTCLDY 77 66 68 S6 30.01S WTRBRY/OXFORD PTCLDY 75 64 69 SW3 30.04R BRIDGEPORT CLEAR 78 69 73 S9 29.99R MERIDEN PTCLDY 79 67 66 S6 29.99R NEW HAVEN PTCLDY 76 69 79 S7 29.99S CHESTER FAIR 75 70 83 S5 30.02R GROTON PTCLDY 73 69 87 CALM 30.01R WILLIMANTIC MOCLDY 78 67 68 S7 30.00S IN RI CITY SKY/WX TMP DP RH WIND PRES REMARKS PROVIDENCE MOCLDY 75 68 78 S9 30.01R BLOCK ISLAND CLEAR 73 70 88 S8 30.03R WESTERLY PTCLDY 75 69 81 S5 30.02R IN MA CITY SKY/WX TMP DP RH WIND PRES REMARKS BOSTON MOCLDY 76 67 73 S12 29.99R WORCESTER MOCLDY 73 65 75 SW8 30.03R WESTFIELD MOCLDY 70 68 93 CALM 29.99R PROVINCETOWN CLOUDY 73 64 73 SW12 30.01S NANTUCKET PTCLDY 70 65 84 S10 30.03S $$ ANZ330-335-338-340-345-350-353-355-280100- COASTAL MARINE OBSERVATIONS STATION/POSITION TIME SKY/WX TEMP WIND PRES VSBY WAVE AIR SEA DIR/SP/G HT/PER (UTC) (F) (DEG/KT/KT) (MB) (MI) (FT/S) NY HARB ENTRANCE 2350 76 76 190/ 12/ 14 1015.2 2/11 4S FIRE IS NOT AVBL 20S FIRE ISLAND 2350 75 72 210/ 8/ 10 1015.6 2/11 GREAT SOUTH BAY 2315 76 80 200/ 10/ 12 N/A 23SW MTP 2350 75 74 190/ 8/ 10 1015.8 2/11 HUDSON CANYON NOT AVBL KINGS POINT 2300 77 71 200/ 11/ 13 1014.8 CENTRAL LI SOUND NOT AVBL EASTERN LI SOUND 2300 72 69 170/ 8/ 10 N/A ROBBINS REEF 2300 76 160/ 16/ 17 1014.0 $$ >>>>>>>>>>>>>>>>>>>>>>>>>>>> KEY <<<<<<<<<<<<<<<<<<<<<<<<<<< > < > SKY/WX - SKY CONDITION/PRESENT WEATHER < > TMP - TEMPERATURE IN FAHRENHEIT < > DP - DEWPOINT IN FAHRENHEIT < > RH - RELATIVE HUMIDITY IN PERCENT < > WIND - DIRECTION AND SPEED IN MPH < > PRES - MEAN SEA LEVEL PRESSURE IN INCHES OF HG < > WCI - WIND CHILL INDEX < > VSB - VISIBILITY IN MILES < > HX - HEAT INDEX < > TC - TEMPERATURE IN CELSIUS < > VRB - VARIABLE WIND DIRECTION < > < >>>>>>>>>>>>>>>>>>>>>>>>>>>> KEY <<<<<<<<<<<<<<<<<<<<<<<<<<<

USA.gov is the U.S. government's official web portal to all federal, state and local government web resources and services.